Location: York
(31.8935°S, 116.7682°E)
Time: 18:02:51
(UTC+08:00)

Vanguard 1 Rocket - All Passes

Search period start: 15 June 2021 00:00
Search period end: 25 June 2021 00:00
Orbit: 651 x 4225 km, 34.3° (Epoch: 14 June)

Date Brightness Start Highest point End Pass type
(mag) Time Alt. Az. Time Alt. Az. Time Alt. Az.
15 Jun - 05:27:40 10° NNE 05:37:06 13° NE 05:45:16 10° ENE visible
15 Jun - 07:47:58 10° NNW 08:08:02 40° NNE 08:20:02 10° E daylight
15 Jun - 10:19:04 10° WNW 10:37:01 76° NNE 10:45:49 10° ESE daylight
15 Jun - 12:52:40 10° W 13:04:05 75° S 13:10:04 10° E daylight
15 Jun - 15:23:01 10° WSW 15:29:38 67° NNW 15:34:08 10° ENE daylight
16 Jun - 06:35:14 10° NNW 06:54:12 29° NE 07:07:17 10° E visible
16 Jun - 09:03:38 10° NW 09:24:14 62° NNE 09:34:56 10° ESE daylight
16 Jun - 11:37:22 10° W 11:52:15 82° S 11:59:35 10° ESE daylight
16 Jun - 14:09:50 10° WSW 14:18:40 86° SSE 14:23:46 10° ENE daylight
16 Jun - 16:38:53 10° W 16:43:07 24° NW 16:46:42 10° NNE daylight
17 Jun - 05:24:42 10° N 05:40:00 20° NE 05:52:19 10° ENE visible
17 Jun - 07:48:56 10° NW 08:10:50 49° NNE 08:23:31 10° E daylight
17 Jun - 10:21:26 10° WNW 10:39:57 86° NNE 10:48:58 10° ESE daylight
17 Jun - 12:55:34 10° W 13:07:14 77° S 13:13:18 10° E daylight
17 Jun - 15:26:02 10° WSW 15:32:36 50° NNW 15:37:03 10° NE daylight
18 Jun - 04:21:25 10° NNE 04:25:32 11° NE 04:29:30 10° NE visible
18 Jun - 06:35:28 10° NNW 06:56:55 37° NE 07:11:13 10° E visible
18 Jun - 09:05:31 10° WNW 09:27:04 72° NNE 09:38:06 10° ESE daylight
18 Jun - 11:40:10 10° W 11:55:20 79° S 12:02:45 10° E daylight
18 Jun - 14:12:43 10° WSW 14:21:45 81° NNW 14:26:54 10° ENE daylight
18 Jun - 16:42:42 10° WNW 16:45:50 16° NW 16:48:36 10° N daylight
19 Jun - 05:23:45 10° N 05:42:41 27° NE 05:57:22 10° E visible
19 Jun - 07:50:18 10° NW 08:13:34 59° NNE 08:26:48 10° ESE daylight
19 Jun - 10:23:58 10° WNW 10:42:55 87° SSW 10:52:07 10° ESE daylight
19 Jun - 12:58:26 10° W 13:10:22 82° S 13:16:31 10° E daylight
19 Jun - 15:29:08 10° W 15:35:26 36° NW 15:39:46 10° NNE daylight
20 Jun - 04:15:06 10° NNE 04:28:20 16° NE 04:40:09 10° ENE visible
20 Jun - 06:36:15 10° NNW 06:59:32 46° NNE 07:14:46 10° E visible
20 Jun - 09:07:40 10° WNW 09:29:54 81° NNE 09:41:14 10° ESE daylight
20 Jun - 11:42:59 10° W 11:58:25 78° S 12:05:59 10° E daylight
20 Jun - 14:15:35 10° WSW 14:24:44 66° NNW 14:29:57 10° ENE daylight
21 Jun - 05:23:45 10° NNW 05:45:12 34° NE 06:01:33 10° E visible
21 Jun - 07:51:59 10° NW 08:16:16 68° NNE 08:29:57 10° ESE daylight
21 Jun - 10:26:38 10° W 10:45:54 83° S 10:55:17 10° E daylight
21 Jun - 13:01:14 10° WSW 13:13:28 90° NW 13:19:42 10° ENE daylight
21 Jun - 15:32:25 10° W 15:38:07 26° NW 15:42:12 10° NNE daylight
22 Jun - 04:13:25 10° N 04:30:50 23° NE 04:46:07 10° E visible
22 Jun - 06:37:26 10° NW 07:02:04 55° NNE 07:18:05 10° ESE visible
22 Jun - 09:10:02 10° WNW 09:32:44 88° NNE 09:44:20 10° ESE daylight
22 Jun - 11:45:47 10° W 12:01:32 80° S 12:09:12 10° E daylight
22 Jun - 14:18:29 10° WSW 14:27:35 51° NNW 14:32:50 10° NE daylight
23 Jun - 03:08:19 10° NNE 03:16:34 12° NE 03:24:39 10° ENE visible
23 Jun - 05:24:21 10° NNW 05:47:36 42° NE 06:05:14 10° E visible
23 Jun - 07:53:57 10° WNW 08:18:55 76° NNE 08:33:03 10° ESE daylight
23 Jun - 10:29:22 10° W 10:48:56 81° S 10:58:27 10° E daylight
23 Jun - 13:04:01 10° WSW 13:16:28 79° NNW 13:22:49 10° ENE daylight
23 Jun - 15:36:05 10° W 15:40:40 18° NW 15:44:10 10° N daylight
24 Jun - 04:13:04 10° N 04:33:08 30° NE 04:50:45 10° E visible
24 Jun - 06:38:59 10° NW 07:04:34 63° NNE 07:21:14 10° ESE visible
24 Jun - 09:12:33 10° WNW 09:35:37 87° SSW 09:47:27 10° ESE daylight
24 Jun - 11:48:34 10° W 12:04:36 85° S 12:12:24 10° E daylight
24 Jun - 14:21:28 10° WSW 14:30:18 39° NW 14:35:32 10° NNE daylight
